Location: Allentsteig
(48.6833°N, 15.3167°E)
Time: 16:26:17
(UTC+00:00)

CZ-2C R/B - Pass Details

Date: 18 September 2020
Orbit: 704 x 908 km, 98.1° (Epoch: 30 October)

Event Time Altitude Azimuth Distance (km) Brightness Sun altitude
Rises 17:56:21 0° 170° (S) 3,244 6.0 -9.3°
Reaches altitude 10° 17:58:37 10° 173° (S) 2,349 5.3 -9.7°
Maximum altitude 18:03:49 73° 257° (WSW) 866 3.4 -10.5°
Drops below altitude 10° 18:09:22 10° 343° (NNW) 2,501 6.1 -11.4°
Sets 18:11:50 0° 345° (NNW) 3,469 6.8 -11.8°
